When you browse on this site, cookies collect data to enhance your experience and personalize the content and advertising you see.
Visit our Privacy Policy to learn more. By continuing to use the site, you agree to this use of cookies and data.
  • In Czech Republic
  • List of Countries
  • For 7 days
  • Water Temperature
  • Satellite Maps
  • Weather Map
  • Weather Widgets
  • user-avatar
    Login

    Hourly Weather Novoe Selo

    Today, 20 May, Monday

    Time Temperature Precipitation Wind Pressure Humidity
    00:00 +14°C° 0 mm 3 mps 747 mmHg 79%
    01:00 +13°C° 0 mm 3 mps 747 mmHg 81%
    02:00 +13°C° 0 mm 3 mps 747 mmHg 83%
    03:00 +13°C° 0 mm 3 mps 747 mmHg 84%
    04:00 +13°C° 0 mm 3 mps 747 mmHg 85%
    05:00 +13°C° 0 mm 3 mps 747 mmHg 86%
    06:00 +16°C° 0 mm 3 mps 747 mmHg 81%
    07:00 +18°C° 0 mm 4 mps 747 mmHg 75%
    08:00 +20°C° 0 mm 4 mps 748 mmHg 70%
    09:00 +21°C° 0 mm 5 mps 748 mmHg 65%
    10:00 +22°C° 0 mm 5 mps 748 mmHg 60%
    11:00 +23°C° 0 mm 5 mps 748 mmHg 56%
    12:00 +23°C° 0 mm 5 mps 748 mmHg 55%
    13:00 +25°C° 0 mm 5 mps 747 mmHg 54%
    14:00 +25°C° 0 mm 5 mps 747 mmHg 53%
    15:00 +25°C° 0 mm 5 mps 747 mmHg 57%
    16:00 +23°C° 0 mm 4 mps 747 mmHg 61%
    17:00 +24°C° 0 mm 3 mps 747 mmHg 64%
    18:00 +21°C° 0 mm 3 mps 747 mmHg 68%
    19:00 +19°C° 0 mm 3 mps 746 mmHg 72%
    20:00 +17°C° 0 mm 3 mps 746 mmHg 76%
    21:00 +17°C° 0 mm 3 mps 746 mmHg 78%
    22:00 +16°C° 0 mm 3 mps 747 mmHg 80%
    23:00 +14°C° 0 mm 3 mps 747 mmHg 81%

    Tomorrow, 21 May, Tuesday

    Time Temperature Precipitation Wind Pressure Humidity
    00:00 +14°C° 0 mm 4 mps 747 mmHg 82%
    01:00 +13°C° 0 mm 4 mps 747 mmHg 82%
    02:00 +13°C° 0 mm 4 mps 747 mmHg 82%
    03:00 +13°C° 0 mm 4 mps 747 mmHg 82%
    04:00 +13°C° 0 mm 4 mps 746 mmHg 82%
    05:00 +13°C° 0 mm 4 mps 746 mmHg 82%
    06:00 +14°C° 0 mm 5 mps 746 mmHg 76%
    07:00 +16°C° 0 mm 6 mps 746 mmHg 71%
    08:00 +17°C° 0 mm 6 mps 746 mmHg 65%
    09:00 +19°C° 0 mm 6 mps 746 mmHg 64%
    10:00 +21°C° 0 mm 6 mps 746 mmHg 63%
    11:00 +22°C° 0 mm 6 mps 746 mmHg 62%
    12:00 +22°C° 0 mm 6 mps 746 mmHg 61%
    13:00 +23°C° 0 mm 6 mps 745 mmHg 60%
    14:00 +23°C° 0 mm 6 mps 745 mmHg 60%
    15:00 +23°C° 0 mm 6 mps 745 mmHg 62%
    16:00 +23°C° 0 mm 5 mps 744 mmHg 65%
    17:00 +22°C° 0 mm 5 mps 744 mmHg 67%
    18:00 +21°C° 0 mm 4 mps 744 mmHg 71%
    19:00 +19°C° 0 mm 4 mps 744 mmHg 75%
    20:00 +18°C° 0 mm 4 mps 744 mmHg 79%
    21:00 +17°C° 0 mm 4 mps 743 mmHg 81%
    22:00 +16°C° 0 mm 3 mps 743 mmHg 83%
    23:00 +14°C° 0 mm 3 mps 743 mmHg 85%

    Day after tomorrow, 22 May, Wednesday

    Time Temperature Precipitation Wind Pressure Humidity
    00:00 +14°C° 0 mm 3 mps 743 mmHg 87%
    01:00 +13°C° 0 mm 3 mps 743 mmHg 90%
    02:00 +13°C° 0 mm 3 mps 742 mmHg 92%
    03:00 +13°C° 0 mm 3 mps 742 mmHg 93%
    04:00 +13°C° 0 mm 3 mps 742 mmHg 94%
    05:00 +13°C° 0 mm 3 mps 742 mmHg 95%
    06:00 +16°C° 0 mm 3 mps 742 mmHg 91%
    07:00 +17°C° 0 mm 3 mps 742 mmHg 87%
    08:00 +19°C° 0 mm 3 mps 742 mmHg 83%
    09:00 +20°C° 0 mm 3 mps 742 mmHg 78%
    10:00 +21°C° 0 mm 3 mps 742 mmHg 73%
    11:00 +22°C° 0 mm 3 mps 741 mmHg 68%
    12:00 +24°C° 0.1 mm 3 mps 741 mmHg 64%
    13:00 +25°C° 0.1 mm 3 mps 741 mmHg 61%
    14:00 +25°C° 0.1 mm 2 mps 741 mmHg 58%
    15:00 +25°C° 0.4 mm 2 mps 741 mmHg 61%
    16:00 +25°C° 0.4 mm 2 mps 740 mmHg 65%
    17:00 +24°C° 0.4 mm 2 mps 740 mmHg 69%
    18:00 +21°C° 0 mm 2 mps 740 mmHg 74%
    19:00 +20°C° 0 mm 2 mps 740 mmHg 78%
    20:00 +18°C° 0 mm 2 mps 740 mmHg 83%
    21:00 +17°C° 0 mm 2 mps 740 mmHg 85%
    22:00 +17°C° 0 mm 2 mps 740 mmHg 86%
    23:00 +16°C° 0 mm 2 mps 740 mmHg 88%

    23 May, Thursday

    Time Temperature Precipitation Wind Pressure Humidity
    00:00 +16°C° 0 mm 2 mps 740 mmHg 89%
    01:00 +15°C° 0 mm 2 mps 740 mmHg 90%
    02:00 +15°C° 0 mm 2 mps 740 mmHg 91%
    03:00 +15°C° 0 mm 2 mps 740 mmHg 91%
    04:00 +15°C° 0 mm 1 mps 740 mmHg 90%
    05:00 +15°C° 0 mm 1 mps 740 mmHg 89%
    06:00 +18°C° 0 mm 1 mps 740 mmHg 84%
    07:00 +20°C° 0 mm 1 mps 740 mmHg 78%
    08:00 +22°C° 0 mm 1 mps 740 mmHg 72%
    09:00 +23°C° 0.3 mm 1 mps 740 mmHg 67%
    10:00 +24°C° 0.3 mm 1 mps 740 mmHg 62%
    11:00 +25°C° 0.3 mm 1 mps 740 mmHg 56%
    12:00 +25°C° 0 mm 2 mps 740 mmHg 55%
    13:00 +26°C° 0 mm 2 mps 739 mmHg 54%
    14:00 +26°C° 0 mm 3 mps 739 mmHg 54%
    15:00 +26°C° 0.1 mm 2 mps 739 mmHg 56%
    16:00 +25°C° 0.1 mm 2 mps 739 mmHg 59%
    17:00 +25°C° 0.1 mm 2 mps 739 mmHg 62%
    18:00 +23°C° 0.1 mm 1 mps 739 mmHg 66%
    19:00 +21°C° 0.1 mm 1 mps 739 mmHg 69%
    20:00 +18°C° 0.1 mm 0 mps 739 mmHg 73%
    21:00 +17°C° 0 mm 0 mps 739 mmHg 75%
    22:00 +16°C° 0 mm 0 mps 739 mmHg 77%
    23:00 +16°C° 0 mm 0 mps 739 mmHg 79%

    24 May, Friday

    Time Temperature Precipitation Wind Pressure Humidity
    00:00 +16°C° 0.1 mm 0 mps 739 mmHg 81%
    01:00 +15°C° 0.1 mm 0 mps 739 mmHg 82%
    02:00 +16°C° 0.1 mm 1 mps 739 mmHg 84%
    03:00 +15°C° 0.1 mm 0 mps 739 mmHg 84%
    04:00 +16°C° 0.1 mm 0 mps 739 mmHg 85%
    05:00 +16°C° 0.1 mm 0 mps 739 mmHg 86%
    06:00 +17°C° 0.5 mm 0 mps 739 mmHg 83%
    07:00 +20°C° 0.5 mm 1 mps 738 mmHg 80%
    08:00 +21°C° 0.5 mm 1 mps 738 mmHg 77%
    09:00 +22°C° 0.5 mm 1 mps 738 mmHg 72%
    10:00 +23°C° 0.5 mm 1 mps 738 mmHg 66%
    11:00 +24°C° 0.5 mm 2 mps 738 mmHg 60%
    12:00 +25°C° 0.1 mm 2 mps 738 mmHg 59%
    13:00 +25°C° 0.1 mm 2 mps 738 mmHg 57%
    14:00 +26°C° 0.1 mm 2 mps 737 mmHg 56%
    15:00 +25°C° 0.7 mm 2 mps 737 mmHg 60%
    16:00 +25°C° 0.7 mm 2 mps 737 mmHg 63%
    17:00 +24°C° 0.7 mm 2 mps 737 mmHg 67%
    18:00 +23°C° 0.3 mm 2 mps 736 mmHg 72%
    19:00 +21°C° 0.3 mm 1 mps 736 mmHg 76%
    20:00 +20°C° 0.3 mm 1 mps 736 mmHg 81%
    21:00 +19°C° 0.5 mm 1 mps 736 mmHg 83%
    22:00 +18°C° 0.5 mm 1 mps 736 mmHg 85%
    23:00 +17°C° 0.5 mm 2 mps 736 mmHg 87%

    25 May, Saturday

    Time Temperature Precipitation Wind Pressure Humidity
    00:00 +16°C° 0 mm 2 mps 736 mmHg 89%
    01:00 +16°C° 0 mm 2 mps 736 mmHg 90%
    02:00 +16°C° 0 mm 2 mps 735 mmHg 91%
    03:00 +16°C° 0.1 mm 2 mps 735 mmHg 92%
    04:00 +16°C° 0.1 mm 2 mps 735 mmHg 92%
    05:00 +16°C° 0.1 mm 2 mps 736 mmHg 93%
    06:00 +17°C° 0.5 mm 2 mps 736 mmHg 90%
    07:00 +18°C° 0.5 mm 2 mps 736 mmHg 87%
    08:00 +19°C° 0.5 mm 2 mps 736 mmHg 83%
    09:00 +21°C° 0.7 mm 1 mps 735 mmHg 77%
    10:00 +23°C° 0.7 mm 1 mps 735 mmHg 70%
    11:00 +24°C° 0.7 mm 1 mps 735 mmHg 63%
    12:00 +24°C° 1.8 mm 1 mps 735 mmHg 63%
    13:00 +24°C° 1.8 mm 1 mps 735 mmHg 63%
    14:00 +24°C° 1.8 mm 2 mps 735 mmHg 63%
    15:00 +24°C° 0 mm 2 mps 735 mmHg 65%
    16:00 +24°C° 0 mm 2 mps 735 mmHg 66%
    17:00 +24°C° 0 mm 1 mps 734 mmHg 67%
    18:00 +21°C° 0.3 mm 2 mps 734 mmHg 74%
    19:00 +20°C° 0.3 mm 2 mps 734 mmHg 81%
    20:00 +18°C° 0.3 mm 3 mps 734 mmHg 88%
    21:00 +17°C° 0.4 mm 3 mps 734 mmHg 90%
    22:00 +17°C° 0.4 mm 3 mps 734 mmHg 92%
    23:00 +16°C° 0.4 mm 3 mps 734 mmHg 94%
    Show more